STARLINK-5269 (54161 NORAD) Tracking and Keplerian Element Data

This shows tracking and keplerian element data for the satellite.

Feedback or suggestion? Click here.




ElementValue
Catalog54161
NameSTARLINK-5269
Epoch Orbit130
Epoch Day324.91667824
Epoch Year2022
RAAN26.0711
Inclination53.2176
Eccentricity0.0001388
Argument of Perigee52.063
Mean Anonmoly83.538
Mean Motion15.58688234
Decay Rate-0.01187691
L11 54161U 22141E 22324.91667824 -.01187691 00000+0 -16862-1 0 9991
L22 54161 53.2176 26.0711 0001388 52.0630 83.5380 15.58688234 1307



Live tracking and technical data element details for STARLINK-5269 (NORAD 54161). STARLINK-5269 can be tracked NOW for your location showing map with azimuth and elevation plus other details from your city location.







IsCatalogInMostPopularTable: catalog: 54161, numindb: 9
Update: records affected: 1



GetName: 54161 STARLINK-5269

Hit Count: updated at: Sun, 04 Dec 2022 21:21:03 GMT